Printer-friendly version

IAU Minor Planet Center

Minor Planet Center

MPEC 2006-V23 : COMET P/2006 T1 (LEVY)

The following Minor Planet Electronic Circular may be linked-to from your own Web pages, but must not otherwise be redistributed electronically.


Read MPEC 2006-V22 Read MPEC 2006-V24


M.P.E.C. 2006-V23                                Issued 2006 Nov. 8, 15:58 UT

     The Minor Planet Electronic Circulars contain information on unusual
         minor planets and routine data on comets.  They are published
   on behalf of Commission 20 of the International Astronomical Union by the
          Minor Planet Center, Smithsonian Astrophysical Observatory,
                          Cambridge, MA 02138, U.S.A.

             Prepared using the Tamkin Foundation Computer Network

                              MPC@CFA.HARVARD.EDU
          URL http://cfa-www.harvard.edu/iau/mpc.html  ISSN 1523-6714

                            COMET P/2006 T1 (LEVY)

Observations:
    PK06T010  C2006 10 20.81233 10 44 47.60 +03 57 10.5                 EV023349
    PK06T010  C2006 10 20.81351 10 44 47.84 +03 57 07.7                 EV023349
    PK06T010  C2006 10 20.81469 10 44 48.07 +03 57 04.8          11.6 T EV023349
    PK06T010  C2006 10 22.20065 10 49 29.02 +03 04 13.0                 EV023J95
    PK06T010  C2006 10 22.20237 10 49 29.40 +03 04 08.6                 EV023J95
    PK06T010  C2006 10 22.20468 10 49 29.88 +03 04 03.5          15.0 N EV023J95
    PK06T010  C2006 10 25.83685 11 01 32.26 +00 47 29.6                 EV023349
    PK06T010  C2006 10 25.83781 11 01 32.44 +00 47 27.7                 EV023349
    PK06T010  C2006 10 25.83877 11 01 32.63 +00 47 25.4          11.7 T EV023349
    PK06T010  C2006 10 31.44205 11 19 29.40 -02 36 56.6          18.4 T EV023H07
    PK06T010  C2006 10 31.45727 11 19 32.45 -02 37 29.4          20.1 T EV023H07
    PK06T010  C2006 10 31.47507 11 19 35.89 -02 38 08.3          20.8 T EV023H07
    PK06T010  C2006 11 03.22474 11 28 08.25 -04 15 14.0                 EV023J95
    PK06T010  C2006 11 03.22838 11 28 08.97 -04 15 21.6                 EV023J95
    PK06T010  C2006 11 03.23195 11 28 09.54 -04 15 28.8          17.7 N EV023J95
    PK06T010  C2006 11 03.43514 11 28 47.18 -04 22 32.9          16.0 N EV023850
    PK06T010  C2006 11 03.44181 11 28 48.43 -04 22 47.0          15.9 N EV023850
    PK06T010  C2006 11 03.44849 11 28 49.61 -04 23 00.7          16.0 N EV023850
    PK06T010  C2006 11 03.45516 11 28 50.91 -04 23 12.6          15.9 N EV023850

Observer details:
349 Ageo.  Observer K. Kadota.  0.25-m f/5.0 reflector + CCD.
850 Cordell-Lorenz Observatory, Sewanee.  Observers D. T. Durig,
    J. V. Christopher, W. R. O'Farrell.  0.30-m f/9.7 Schmidt-Cassegrain + CCD.
H07 7300 Observatory, Cloudcroft.  Observer W. K. Yeung.  0.45-m f/3
    Schmidt-Cassegrain + CCD.
J95 Great Shefford.  Observer P. Birtwhistle.  0.40-m f/6.0 Schmidt-Cassegrain
    + CCD.

Orbital elements:
    P/2006 T1 (Levy)
T 2006 Oct. 7.4317 TT                                   MPC
q   0.989686             (2000.0)            P               Q
n   0.1870951      Peri.  179.4547      -0.1616331      -0.9369768
a   3.027571       Node   279.8194      +0.9042237      -0.0148867
e   0.673109       Incl.   18.3223      +0.3952900      -0.3490744
P   5.27
From 277 observations 2006 Oct. 2-Nov. 3.

Brian G. Marsden             (C) Copyright 2006 MPC           M.P.E.C. 2006-V23

Read MPEC 2006-V22 Read MPEC 2006-V24


Our Web policy. Index to the CBAT/MPC/ICQ pages.


Valid HTML 4.01!